TimeHST,TemperatureF,Dew PointF,Humidity,Sea Level PressureIn,VisibilityMPH,Wind Direction,Wind SpeedMPH,Gust SpeedMPH,PrecipitationIn,Events,Conditions,WindDirDegrees,DateUTC
12:16 AM,69.8,66.2,88,30.03,10.0,East,3.5,-,N/A,,Mostly Cloudy,100,2013-03-11 10:16:00
12:42 AM,69.8,66.2,88,30.02,10.0,Calm,Calm,-,N/A,,Overcast,0,2013-03-11 10:42:00
12:54 AM,69.1,66.0,90,30.04,10.0,ESE,5.8,-,N/A,,Overcast,110,2013-03-11 10:54:00
1:54 AM,66.9,64.9,93,30.01,10.0,ESE,5.8,-,N/A,,Clear,110,2013-03-11 11:54:00
2:54 AM,66.0,64.9,96,29.99,10.0,East,5.8,-,N/A,,Partly Cloudy,100,2013-03-11 12:54:00
3:19 AM,66.2,64.4,94,29.97,10.0,East,4.6,-,N/A,,Overcast,100,2013-03-11 13:19:00
3:54 AM,66.9,64.9,93,29.99,10.0,Calm,Calm,-,N/A,,Overcast,0,2013-03-11 13:54:00
4:54 AM,64.9,64.0,97,30.00,10.0,SE,4.6,-,N/A,,Overcast,130,2013-03-11 14:54:00
5:54 AM,66.0,64.9,96,30.02,10.0,Calm,Calm,-,N/A,,Mostly Cloudy,0,2013-03-11 15:54:00
6:54 AM,66.0,64.9,96,30.04,10.0,SE,3.5,-,N/A,,Overcast,130,2013-03-11 16:54:00
7:54 AM,69.1,66.9,93,30.06,10.0,Calm,Calm,-,N/A,,Mostly Cloudy,0,2013-03-11 17:54:00
8:54 AM,72.0,66.9,84,30.08,10.0,Calm,Calm,-,N/A,,Overcast,0,2013-03-11 18:54:00
9:54 AM,75.0,66.9,76,30.08,10.0,NE,5.8,-,N/A,,Mostly Cloudy,40,2013-03-11 19:54:00
10:54 AM,75.0,66.9,76,30.08,10.0,North,8.1,-,N/A,,Mostly Cloudy,360,2013-03-11 20:54:00
11:54 AM,75.9,66.9,74,30.07,10.0,North,10.4,-,N/A,,Mostly Cloudy,10,2013-03-11 21:54:00
12:54 PM,78.1,66.9,68,30.05,10.0,NNE,9.2,-,N/A,,Mostly Cloudy,20,2013-03-11 22:54:00
1:54 PM,77.0,66.9,71,30.02,10.0,NNE,8.1,-,N/A,,Scattered Clouds,20,2013-03-11 23:54:00
2:54 PM,77.0,66.9,71,30.01,10.0,NNE,11.5,-,N/A,,Scattered Clouds,30,2013-03-12 00:54:00
3:54 PM,75.9,66.9,74,30.00,10.0,NNE,9.2,-,N/A,,Scattered Clouds,30,2013-03-12 01:54:00
4:54 PM,75.0,66.9,76,30.01,10.0,North,11.5,-,N/A,,Scattered Clouds,10,2013-03-12 02:54:00
5:54 PM,73.9,66.0,76,30.02,10.0,NNE,9.2,-,N/A,,Scattered Clouds,20,2013-03-12 03:54:00
6:54 PM,73.0,66.0,79,30.04,10.0,NNE,6.9,-,N/A,,Scattered Clouds,20,2013-03-12 04:54:00
7:54 PM,71.1,66.0,84,30.06,10.0,ENE,4.6,-,N/A,,Scattered Clouds,70,2013-03-12 05:54:00
8:54 PM,69.1,66.9,93,30.06,10.0,ESE,3.5,-,N/A,,Partly Cloudy,110,2013-03-12 06:54:00
9:54 PM,68.0,66.0,93,30.08,10.0,Calm,Calm,-,N/A,,Clear,0,2013-03-12 07:54:00
10:54 PM,70.0,66.0,87,30.09,10.0,Calm,Calm,-,N/A,,Mostly Cloudy,0,2013-03-12 08:54:00
10:56 PM,69.8,66.2,88,30.07,10.0,Calm,Calm,-,N/A,,Scattered Clouds,0,2013-03-12 08:56:00
11:54 PM,68.0,66.9,96,30.07,10.0,Calm,Calm,-,N/A,,Overcast,0,2013-03-12 09:54:00